TimeCST,TemperatureF,Dew PointF,Humidity,Sea Level PressureIn,VisibilityMPH,Wind Direction,Wind SpeedMPH,Gust SpeedMPH,PrecipitationIn,Events,Conditions,WindDirDegrees,DateUTC
12:14 AM,68.0,68.0,100,29.96,10.0,South,10.4,-,N/A,,Overcast,170,2013-01-16 06:14:00
12:55 AM,68.0,68.0,100,29.96,10.0,SSE,10.4,-,N/A,,Overcast,160,2013-01-16 06:55:00
1:55 AM,69.8,69.8,100,29.96,10.0,South,11.5,-,N/A,,Overcast,170,2013-01-16 07:55:00
2:55 AM,69.8,69.8,100,29.95,10.0,South,12.7,-,N/A,,Overcast,170,2013-01-16 08:55:00
3:55 AM,69.8,69.8,100,29.94,10.0,South,9.2,-,N/A,,Overcast,170,2013-01-16 09:55:00
4:55 AM,69.8,69.8,100,29.95,10.0,SSW,5.8,-,N/A,,Overcast,200,2013-01-16 10:55:00
5:55 AM,69.4,69.4,100,29.96,10.0,South,11.5,-,N/A,,Overcast,180,2013-01-16 11:55:00
6:29 AM,69.8,69.8,100,29.96,10.0,South,11.5,-,N/A,,Mostly Cloudy,170,2013-01-16 12:29:00
6:55 AM,69.4,69.4,100,29.97,10.0,South,9.2,-,N/A,,Mostly Cloudy,180,2013-01-16 12:55:00
6:58 AM,69.8,69.8,100,29.97,10.0,South,9.2,-,N/A,,Mostly Cloudy,180,2013-01-16 12:58:00
7:30 AM,69.8,69.8,100,29.98,10.0,South,12.7,-,N/A,,Mostly Cloudy,180,2013-01-16 13:30:00
7:41 AM,69.8,69.8,100,29.99,10.0,South,13.8,-,N/A,,Scattered Clouds,170,2013-01-16 13:41:00
7:55 AM,70.0,70.0,100,29.98,10.0,SSE,11.5,-,N/A,,Partly Cloudy,160,2013-01-16 13:55:00
8:07 AM,69.8,69.8,100,29.99,10.0,South,12.7,-,N/A,,Partly Cloudy,170,2013-01-16 14:07:00
8:55 AM,72.0,72.0,100,30.00,10.0,South,12.7,-,N/A,,Clear,170,2013-01-16 14:55:00
9:10 AM,73.4,73.4,100,30.00,10.0,SSE,15.0,-,N/A,,Mostly Cloudy,160,2013-01-16 15:10:00
9:12 AM,73.4,73.4,100,30.00,10.0,South,13.8,-,N/A,,Scattered Clouds,170,2013-01-16 15:12:00
9:13 AM,73.4,73.4,100,30.00,10.0,South,12.7,-,N/A,,Mostly Cloudy,170,2013-01-16 15:13:00
9:18 AM,73.4,73.4,100,30.00,10.0,South,13.8,-,N/A,,Mostly Cloudy,170,2013-01-16 15:18:00
9:42 AM,71.6,71.6,100,29.99,10.0,South,12.7,-,N/A,Rain,Light Rain,170,2013-01-16 15:42:00
9:43 AM,71.6,71.6,100,29.99,10.0,SSE,13.8,-,N/A,,Mostly Cloudy,160,2013-01-16 15:43:00
9:55 AM,71.4,71.4,100,29.99,10.0,South,11.5,-,0.00,,Mostly Cloudy,170,2013-01-16 15:55:00
9:58 AM,71.6,71.6,100,29.99,10.0,South,11.5,-,N/A,,Mostly Cloudy,170,2013-01-16 15:58:00
10:18 AM,73.4,73.4,100,29.97,10.0,South,12.7,19.6,N/A,,Overcast,170,2013-01-16 16:18:00
10:59 AM,73.4,73.4,100,29.96,10.0,South,17.3,-,N/A,,Overcast,170,2013-01-16 16:59:00
11:28 AM,73.4,73.4,100,29.94,10.0,South,15.0,-,N/A,,Overcast,170,2013-01-16 17:28:00
11:59 AM,73.4,73.4,100,29.94,10.0,South,16.1,-,N/A,,Mostly Cloudy,170,2013-01-16 17:59:00
12:38 PM,71.6,71.6,100,29.92,10.0,Variable,4.6,-,N/A,,Overcast,0,2013-01-16 18:38:00
12:46 PM,71.6,71.6,100,29.92,10.0,SW,9.2,-,N/A,,Overcast,220,2013-01-16 18:46:00
12:55 PM,71.6,71.6,100,29.94,10.0,South,11.5,-,N/A,,Overcast,180,2013-01-16 18:55:00
1:56 PM,66.2,66.2,100,29.94,3.0,WNW,6.9,-,N/A,Rain,Light Rain,290,2013-01-16 19:56:00
2:59 PM,64.4,64.4,100,29.93,10.0,Variable,3.5,-,N/A,,Overcast,0,2013-01-16 20:59:00
4:00 PM,62.6,62.6,100,29.94,10.0,NNW,8.1,-,N/A,,Overcast,330,2013-01-16 22:00:00
4:59 PM,57.2,57.2,100,29.98,10.0,North,5.8,-,N/A,,Overcast,350,2013-01-16 22:59:00
5:59 PM,55.4,55.4,100,29.99,10.0,NNW,6.9,-,N/A,Rain,Light Rain,330,2013-01-16 23:59:00
6:56 PM,53.6,53.6,100,29.99,10.0,North,9.2,-,N/A,Rain,Light Rain,360,2013-01-17 00:56:00
7:56 PM,53.6,53.6,100,29.99,10.0,NNE,9.2,-,N/A,Rain,Light Rain,20,2013-01-17 01:56:00
9:00 PM,53.6,53.6,100,30.01,10.0,WNW,6.9,-,N/A,,Light Drizzle,300,2013-01-17 03:00:00
9:55 PM,53.6,53.6,100,29.98,10.0,North,4.6,-,N/A,,Overcast,360,2013-01-17 03:55:00
10:55 PM,51.8,51.8,100,29.99,10.0,WNW,10.4,-,N/A,,Overcast,290,2013-01-17 04:55:00
11:55 PM,50.0,50.0,100,29.99,9.0,WNW,9.2,-,N/A,Rain,Light Rain,300,2013-01-17 05:55:00